| time (UTC) | temp F | wind direction | speed knots | gust knots | rain 1hr in | rain 24hr in | rain mn in | humidity % | barometer mb |
| 20260510131131 | 50 | 103 | 0.9 | 5.2 | 0.00 | 0.29 | 0.01 | 62 | 1025.6 |
| 20260510130855 | 50 | 5 | 0.9 | 5.2 | 0.00 | 0.29 | 0.01 | 62 | 1025.6 |
| 20260510130119 | 50 | 103 | 0.9 | 4.3 | 0.00 | 0.29 | 0.01 | 62 | 1025.5 |
| 20260510125613 | 50 | 55 | 0.9 | 4.3 | 0.00 | 0.29 | 0.01 | 62 | 1025.4 |
| 20260510125108 | 50 | 71 | 0.9 | 4.3 | 0.00 | 0.29 | 0.01 | 62 | 1025.2 |
| 20260510124601 | 49 | 5 | 0.9 | 2.6 | 0.00 | 0.29 | 0.01 | 64 | 1025.3 |
| 20260510123549 | 48 | 32 | 0.9 | 2.6 | 0.00 | 0.29 | 0.01 | 68 | 1025.2 |
| 20260510123043 | 48 | 22 | 0.9 | 2.6 | 0.00 | 0.29 | 0.01 | 68 | 1025.1 |
| 20260510122536 | 48 | 38 | 0.9 | 1.7 | 0.00 | 0.29 | 0.01 | 69 | 1025.1 |
| 20260510122031 | 47 | 11 | 0.9 | 2.6 | 0.00 | 0.29 | 0.01 | 70 | 1025.1 |
| 20260510121525 | 47 | 26 | 0.9 | 2.6 | 0.00 | 0.29 | 0.01 | 71 | 1025.0 |
| 20260510121019 | 47 | 29 | 0.9 | 2.6 | 0.00 | 0.29 | 0.01 | 71 | 1025.0 |
| 20260510120513 | 47 | 55 | 0.9 | 2.6 | 0.00 | 0.29 | 0.01 | 72 | 1024.9 |
| 20260510120007 | 47 | 38 | 0.9 | 2.6 | 0.00 | 0.29 | 0.01 | 73 | 1024.5 |
| 20260510115501 | 47 | 30 | 0.9 | 2.6 | 0.00 | 0.29 | 0.01 | 74 | 1024.4 |
| 20260510114955 | 47 | 51 | 0.0 | 2.6 | 0.00 | 0.29 | 0.01 | 74 | 1024.2 |
| 20260510114450 | 47 | 18 | 0.0 | 2.6 | 0.00 | 0.29 | 0.01 | 77 | 1024.1 |
| 20260510113943 | 47 | 24 | 0.0 | 1.7 | 0.00 | 0.29 | 0.01 | 79 | 1024.1 |
| 20260510113709 | 47 | 43 | 0.0 | 1.7 | 0.00 | 0.29 | 0.01 | 79 | 1023.9 |
| 20260510112931 | 47 | 84 | 0.0 | 1.7 | 0.00 | 0.29 | 0.01 | 81 | 1023.8 |
| 20260510112425 | 47 | 25 | 0.9 | 1.7 | 0.00 | 0.29 | 0.01 | 81 | 1023.7 |
| 20260510111919 | 46 | 24 | 0.0 | 1.7 | 0.00 | 0.29 | 0.01 | 82 | 1023.7 |
| 20260510111413 | 46 | 54 | 0.0 | 1.7 | 0.00 | 0.29 | 0.01 | 83 | 1023.6 |
| 20260510110908 | 46 | 54 | 0.0 | 1.7 | 0.00 | 0.29 | 0.01 | 83 | 1023.6 |
| 20260510110401 | 46 | 45 | 0.0 | 1.7 | 0.00 | 0.29 | 0.01 | 83 | 1023.3 |
| 20260510105855 | 46 | 45 | 0.0 | 1.7 | 0.00 | 0.29 | 0.01 | 83 | 1023.1 |
| 20260510105349 | 46 | 40 | 0.0 | 1.7 | 0.00 | 0.29 | 0.01 | 84 | 1023.0 |
| 20260510104843 | 46 | 38 | 0.0 | 1.7 | 0.00 | 0.29 | 0.01 | 84 | 1023.0 |
| 20260510104337 | 46 | 44 | 0.0 | 1.7 | 0.00 | 0.29 | 0.01 | 84 | 1023.0 |
| 20260510103831 | 46 | 66 | 0.0 | 1.7 | 0.00 | 0.29 | 0.01 | 84 | 1022.9 |
| 20260510103325 | 46 | 66 | 0.0 | 1.7 | 0.00 | 0.29 | 0.01 | 84 | 1022.6 |
| 20260510102819 | 46 | 66 | 0.0 | 1.7 | 0.00 | 0.29 | 0.01 | 85 | 1022.4 |
| 20260510102313 | 46 | 66 | 0.0 | 1.7 | 0.00 | 0.29 | 0.01 | 85 | 1022.5 |
| 20260510102039 | 46 | 66 | 0.0 | 1.7 | 0.00 | 0.29 | 0.01 | 85 | 1022.5 |
| 20260510101301 | 46 | 66 | 0.0 | 1.7 | 0.00 | 0.29 | 0.01 | 85 | 1022.4 |
| 20260510101026 | 47 | 66 | 0.0 | 1.7 | 0.00 | 0.29 | 0.01 | 85 | 1022.5 |
| 20260510100249 | 47 | 66 | 0.0 | 1.7 | 0.00 | 0.29 | 0.01 | 86 | 1022.3 |
| 20260510095744 | 47 | 66 | 0.0 | 1.7 | 0.00 | 0.29 | 0.01 | 86 | 1022.3 |
| 20260510095238 | 47 | 66 | 0.0 | 1.7 | 0.00 | 0.29 | 0.01 | 86 | 1022.1 |
| 20260510095003 | 47 | 66 | 0.0 | 1.7 | 0.00 | 0.29 | 0.01 | 87 | 1022.1 |
| 20260510094225 | 47 | 66 | 0.0 | 1.7 | 0.00 | 0.29 | 0.01 | 87 | 1022.0 |
| 20260510093719 | 47 | 66 | 0.0 | 1.7 | 0.00 | 0.29 | 0.01 | 87 | 1022.0 |
| 20260510093213 | 47 | 66 | 0.0 | 1.7 | 0.00 | 0.29 | 0.01 | 87 | 1021.9 |
| 20260510092707 | 47 | 66 | 0.0 | 1.7 | 0.00 | 0.29 | 0.01 | 88 | 1021.6 |
| 20260510092202 | 47 | 66 | 0.0 | 1.7 | 0.00 | 0.29 | 0.01 | 88 | 1021.6 |
| 20260510091655 | 47 | 66 | 0.0 | 1.7 | 0.00 | 0.29 | 0.01 | 88 | 1021.6 |
| 20260510091419 | 47 | 66 | 0.0 | 0.0 | 0.00 | 0.29 | 0.01 | 87 | 1021.5 |
| 20260510090643 | 47 | 66 | 0.0 | 0.0 | 0.00 | 0.29 | 0.01 | 88 | 1021.4 |
| 20260510090137 | 47 | 66 | 0.0 | 0.0 | 0.00 | 0.29 | 0.01 | 88 | 1021.3 |
| 20260510085635 | 47 | 66 | 0.0 | 0.0 | 0.00 | 0.29 | 0.01 | 88 | 1021.2 |
| 20260510085133 | 47 | 66 | 0.0 | 0.0 | 0.00 | 0.29 | 0.01 | 88 | 1021.0 |
| 20260510084633 | 47 | 66 | 0.0 | 0.0 | 0.00 | 0.29 | 0.01 | 88 | 1021.0 |
| 20260510084133 | 47 | 66 | 0.0 | 0.0 | 0.00 | 0.29 | 0.01 | 88 | 1020.9 |
| 20260510083632 | 47 | 66 | 0.0 | 0.0 | 0.00 | 0.29 | 0.01 | 87 | 1020.8 |
| 20260510083133 | 47 | 66 | 0.0 | 0.0 | 0.00 | 0.29 | 0.01 | 87 | 1020.8 |
| 20260510082633 | 47 | 66 | 0.0 | 0.0 | 0.00 | 0.29 | 0.01 | 86 | 1020.8 |
| 20260510082133 | 47 | 66 | 0.0 | 0.0 | 0.00 | 0.29 | 0.01 | 86 | 1020.8 |
| 20260510081902 | 47 | 66 | 0.0 | 0.0 | 0.00 | 0.29 | 0.01 | 86 | 1020.5 |
| 20260510081129 | 48 | 66 | 0.0 | 0.0 | 0.00 | 0.29 | 0.01 | 86 | 1020.5 |
| 20260510080631 | 48 | 66 | 0.0 | 0.9 | 0.00 | 0.29 | 0.01 | 87 | 1020.3 |
| 20260510080129 | 48 | 66 | 0.0 | 0.9 | 0.00 | 0.29 | 0.01 | 86 | 1020.2 |
| 20260510075627 | 48 | 66 | 0.0 | 0.9 | 0.00 | 0.29 | 0.01 | 86 | 1020.1 |
| 20260510075125 | 48 | 66 | 0.0 | 0.9 | 0.00 | 0.29 | 0.01 | 86 | 1020.0 |
| 20260510074623 | 48 | 66 | 0.0 | 0.9 | 0.00 | 0.29 | 0.01 | 86 | 1019.9 |
| 20260510074121 | 49 | 66 | 0.0 | 0.0 | 0.00 | 0.29 | 0.01 | 86 | 1020.0 |
| 20260510073850 | 49 | 66 | 0.0 | 0.0 | 0.00 | 0.29 | 0.01 | 85 | 1019.9 |
| 20260510073116 | 49 | 66 | 0.0 | 1.7 | 0.00 | 0.29 | 0.01 | 85 | 1019.9 |
| 20260510072617 | 49 | 66 | 0.0 | 1.7 | 0.00 | 0.29 | 0.01 | 85 | 1019.8 |
| 20260510072117 | 49 | 66 | 0.0 | 1.7 | 0.00 | 0.29 | 0.01 | 86 | 1019.7 |
| 20260510071615 | 49 | 66 | 0.0 | 1.7 | 0.00 | 0.29 | 0.01 | 86 | 1019.7 |
| 20260510071115 | 49 | 66 | 0.0 | 1.7 | 0.00 | 0.29 | 0.01 | 86 | 1019.7 |
| 20260510070614 | 49 | 53 | 0.0 | 1.7 | 0.00 | 0.29 | 0.01 | 87 | 1019.6 |
| 20260510070115 | 49 | 37 | 0.0 | 1.7 | 0.00 | 0.29 | 0.01 | 87 | 1019.7 |
| 20260510065614 | 49 | 37 | 0.0 | 1.7 | 0.00 | 0.29 | 0.01 | 87 | 1019.6 |
| 20260510065115 | 49 | 49 | 0.0 | 1.7 | 0.00 | 0.29 | 0.01 | 87 | 1019.5 |
| 20260510064616 | 49 | 49 | 0.0 | 1.7 | 0.00 | 0.29 | 0.01 | 87 | 1019.4 |
| 20260510064115 | 49 | 49 | 0.0 | 1.7 | 0.00 | 0.29 | 0.01 | 86 | 1019.4 |
| 20260510063611 | 49 | 49 | 0.0 | 1.7 | 0.00 | 0.29 | 0.01 | 86 | 1019.5 |
| 20260510063110 | 50 | 49 | 0.0 | 1.7 | 0.00 | 0.29 | 0.01 | 86 | 1019.4 |
| 20260510062842 | 50 | 49 | 0.0 | 1.7 | 0.00 | 0.29 | 0.01 | 86 | 1019.3 |
| 20260510062111 | 50 | 49 | 0.0 | 1.7 | 0.00 | 0.29 | 0.01 | 87 | 1019.4 |
| 20260510061842 | 50 | 49 | 0.0 | 1.7 | 0.01 | 0.29 | 0.01 | 86 | 1019.3 |
| 20260510061111 | 50 | 42 | 0.0 | 1.7 | 0.01 | 0.29 | 0.01 | 86 | 1019.4 |
| 20260510060841 | 50 | 34 | 0.0 | 1.7 | 0.01 | 0.29 | 0.01 | 86 | 1019.3 |
| 20260510060110 | 50 | 43 | 0.0 | 1.7 | 0.01 | 0.29 | 0.01 | 86 | 1019.3 |
| 20260510055610 | 51 | 46 | 0.0 | 1.7 | 0.01 | 0.29 | 0.01 | 86 | 1019.2 |
| 20260510055111 | 51 | 55 | 0.0 | 1.7 | 0.01 | 0.29 | 0.01 | 86 | 1019.4 |
| 20260510054611 | 51 | 35 | 0.0 | 3.5 | 0.01 | 0.29 | 0.01 | 85 | 1019.4 |
| 20260510054110 | 52 | 41 | 0.9 | 3.5 | 0.01 | 0.29 | 0.01 | 85 | 1018.9 |
| 20260510053611 | 52 | 28 | 0.9 | 3.5 | 0.01 | 0.29 | 0.01 | 84 | 1018.6 |
| 20260510053111 | 53 | 126 | 0.9 | 3.5 | 0.01 | 0.29 | 0.01 | 84 | 1018.3 |
| 20260510052610 | 54 | 82 | 0.9 | 4.3 | 0.01 | 0.29 | 0.01 | 84 | 1018.2 |
| 20260510052111 | 55 | 92 | 0.9 | 4.3 | 0.01 | 0.29 | 0.01 | 84 | 1018.3 |
| 20260510051610 | 55 | 41 | 0.9 | 4.3 | 0.00 | 0.28 | 0.00 | 82 | 1018.4 |
| 20260510051109 | 56 | 12 | 0.9 | 4.3 | 0.00 | 0.28 | 0.00 | 82 | 1019.1 |
| 20260510050604 | 56 | 311 | 0.9 | 2.6 | 0.00 | 0.28 | 0.00 | 83 | 1019.1 |
| 20260510050328 | 56 | 36 | 0.0 | 1.7 | 0.00 | 0.28 | 0.00 | 84 | 1018.5 |
| 20260510045552 | 56 | 15 | 0.9 | 1.7 | 0.00 | 0.28 | 0.28 | 84 | 1018.0 |
| 20260510045046 | 56 | 15 | 0.0 | 1.7 | 0.00 | 0.28 | 0.28 | 84 | 1017.9 |
| 20260510044540 | 56 | 23 | 0.0 | 1.7 | 0.00 | 0.28 | 0.28 | 84 | 1017.6 |
| 20260510044306 | 56 | 23 | 0.0 | 1.7 | 0.00 | 0.29 | 0.28 | 84 | 1017.4 |
| 20260510043022 | 57 | 230 | 0.0 | 1.7 | 0.00 | 0.29 | 0.28 | 82 | 1016.6 |
| 20260510042516 | 57 | 211 | 0.0 | 1.7 | 0.00 | 0.29 | 0.28 | 81 | 1016.6 |
| 20260510042010 | 57 | 203 | 0.0 | 3.5 | 0.00 | 0.29 | 0.28 | 80 | 1016.6 |
| 20260510041504 | 57 | 202 | 0.0 | 3.5 | 0.00 | 0.29 | 0.28 | 80 | 1016.5 |
| 20260510040958 | 57 | 219 | 0.9 | 5.2 | 0.00 | 0.30 | 0.28 | 80 | 1016.5 |
| 20260510040451 | 57 | 135 | 0.9 | 5.2 | 0.00 | 0.31 | 0.28 | 80 | 1016.4 |
| 20260510035946 | 57 | 283 | 0.9 | 6.1 | 0.00 | 0.31 | 0.28 | 80 | 1016.6 |
| 20260510035440 | 57 | 240 | 0.9 | 6.1 | 0.00 | 0.31 | 0.28 | 80 | 1016.5 |
| 20260510034933 | 57 | 277 | 1.7 | 6.1 | 0.00 | 0.32 | 0.28 | 80 | 1016.6 |
| 20260510034659 | 57 | 148 | 1.7 | 6.1 | 0.00 | 0.32 | 0.28 | 81 | 1016.5 |
| 20260510034153 | 57 | 258 | 0.9 | 6.1 | 0.00 | 0.32 | 0.28 | 83 | 1016.5 |
| 20260510033416 | 56 | 286 | 0.9 | 6.1 | 0.00 | 0.32 | 0.28 | 83 | 1016.7 |
| 20260510032909 | 56 | 184 | 0.0 | 2.6 | 0.00 | 0.32 | 0.28 | 84 | 1016.7 |
| 20260510032404 | 56 | 229 | 0.0 | 2.6 | 0.00 | 0.32 | 0.28 | 85 | 1016.6 |
| 20260510031858 | 56 | 263 | 0.9 | 1.7 | 0.00 | 0.32 | 0.28 | 85 | 1016.5 |
| 20260510031352 | 56 | 173 | 0.0 | 1.7 | 0.00 | 0.32 | 0.28 | 85 | 1016.6 |
| 20260510031116 | 56 | 227 | 0.0 | 1.7 | 0.00 | 0.32 | 0.28 | 84 | 1016.5 |
| 20260510030340 | 56 | 208 | 0.0 | 1.7 | 0.00 | 0.32 | 0.28 | 84 | 1016.4 |
| 20260510025834 | 56 | 152 | 0.9 | 5.2 | 0.00 | 0.32 | 0.28 | 84 | 1016.4 |
| 20260510025328 | 56 | 254 | 0.9 | 5.2 | 0.00 | 0.32 | 0.28 | 84 | 1016.5 |
| 20260510024821 | 56 | 220 | 1.7 | 5.2 | 0.00 | 0.32 | 0.28 | 84 | 1016.7 |
| 20260510024316 | 56 | 325 | 0.9 | 5.2 | 0.00 | 0.32 | 0.28 | 86 | 1016.8 |
| 20260510023810 | 56 | 237 | 0.9 | 3.5 | 0.00 | 0.32 | 0.28 | 88 | 1016.9 |
| 20260510023304 | 55 | 170 | 0.0 | 2.6 | 0.00 | 0.32 | 0.28 | 88 | 1016.9 |
| 20260510023029 | 55 | 205 | 0.0 | 1.7 | 0.00 | 0.32 | 0.28 | 88 | 1016.4 |
| 20260510022522 | 55 | 269 | 0.0 | 1.7 | 0.00 | 0.32 | 0.28 | 88 | 1016.3 |
| 20260510021746 | 55 | 123 | 0.0 | 1.7 | 0.00 | 0.32 | 0.28 | 88 | 1016.1 |
| 20260510021511 | 55 | 216 | 0.0 | 2.6 | 0.00 | 0.32 | 0.28 | 88 | 1016.3 |
| 20260510020733 | 55 | 244 | 0.0 | 2.6 | 0.00 | 0.32 | 0.28 | 88 | 1016.4 |
| 20260510020227 | 55 | 152 | 0.0 | 2.6 | 0.00 | 0.32 | 0.28 | 88 | 1016.3 |
| 20260510015721 | 55 | 250 | 0.0 | 2.6 | 0.00 | 0.32 | 0.28 | 88 | 1016.3 |
| 20260510015215 | 55 | 190 | 0.0 | 1.7 | 0.00 | 0.32 | 0.28 | 88 | 1016.3 |
| 20260510014710 | 55 | 196 | 0.0 | 1.7 | 0.00 | 0.32 | 0.28 | 88 | 1016.3 |
| 20260510014203 | 55 | 197 | 0.9 | 3.5 | 0.00 | 0.32 | 0.28 | 88 | 1016.4 |
| 20260510013658 | 55 | 206 | 0.9 | 3.5 | 0.00 | 0.32 | 0.28 | 88 | 1016.3 |
| 20260510013152 | 55 | 163 | 0.0 | 2.6 | 0.00 | 0.32 | 0.28 | 88 | 1016.3 |
| 20260510012645 | 55 | 202 | 0.0 | 2.6 | 0.00 | 0.32 | 0.28 | 88 | 1016.1 |
| 20260510012410 | 55 | 160 | 0.0 | 2.6 | 0.00 | 0.32 | 0.28 | 88 | 1016.0 |
| 20260510011635 | 55 | 207 | 0.9 | 4.3 | 0.00 | 0.32 | 0.28 | 88 | 1015.9 |
| 20260510011128 | 55 | 148 | 0.9 | 4.3 | 0.00 | 0.32 | 0.28 | 88 | 1015.9 |
| 20260510010621 | 55 | 252 | 0.0 | 3.5 | 0.00 | 0.32 | 0.28 | 88 | 1015.8 |
| 20260510010116 | 55 | 236 | 0.0 | 2.6 | 0.00 | 0.32 | 0.28 | 88 | 1015.7 |
| 20260510005609 | 55 | 219 | 0.9 | 4.3 | 0.00 | 0.32 | 0.28 | 89 | 1015.7 |
| 20260510004834 | 56 | 219 | 0.9 | 5.2 | 0.00 | 0.32 | 0.28 | 89 | 1015.9 |
| 20260510004335 | 56 | 138 | 0.9 | 5.2 | 0.00 | 0.32 | 0.28 | 89 | 1015.9 |
| 20260510003604 | 56 | 165 | 0.0 | 2.6 | 0.00 | 0.32 | 0.28 | 89 | 1016.0 |
| 20260510003102 | 56 | 208 | 0.9 | 2.6 | 0.00 | 0.32 | 0.28 | 89 | 1015.9 |
| 20260510002559 | 56 | 227 | 0.9 | 3.5 | 0.00 | 0.33 | 0.28 | 89 | 1015.9 |
| 20260510002100 | 56 | 197 | 0.9 | 3.5 | 0.00 | 0.33 | 0.28 | 89 | 1015.9 |
| 20260510001600 | 56 | 228 | 0.9 | 3.5 | 0.00 | 0.34 | 0.28 | 90 | 1015.9 |
| 20260510001059 | 56 | 190 | 0.9 | 3.5 | 0.00 | 0.35 | 0.28 | 90 | 1015.8 |
| 20260510000600 | 56 | 123 | 0.0 | 4.3 | 0.00 | 0.35 | 0.28 | 90 | 1015.9 |
| 20260510000100 | 56 | 174 | 0.9 | 4.3 | 0.02 | 0.35 | 0.28 | 90 | 1015.6 |
| 20260509235600 | 56 | 198 | 0.9 | 4.3 | 0.03 | 0.36 | 0.28 | 90 | 1015.7 |
| 20260509235059 | 56 | 306 | 0.9 | 5.2 | 0.08 | 0.36 | 0.28 | 90 | 1015.7 |
| 20260509234600 | 56 | 65 | 1.7 | 7.0 | 0.22 | 0.36 | 0.28 | 90 | 1015.7 |
| 20260509234059 | 56 | 274 | 0.9 | 7.0 | 0.27 | 0.37 | 0.28 | 90 | 1015.7 |
| 20260509233600 | 56 | 334 | 0.9 | 7.0 | 0.28 | 0.37 | 0.28 | 90 | 1015.6 |
| 20260509233058 | 56 | 243 | 0.9 | 7.0 | 0.28 | 0.38 | 0.28 | 90 | 1015.6 |
| 20260509232558 | 56 | 169 | 0.9 | 3.5 | 0.28 | 0.38 | 0.28 | 90 | 1015.6 |
| 20260509232056 | 56 | 51 | 0.0 | 2.6 | 0.28 | 0.39 | 0.28 | 90 | 1015.6 |
| 20260509231556 | 56 | 108 | 0.9 | 2.6 | 0.28 | 0.40 | 0.28 | 89 | 1015.5 |
| 20260509231055 | 56 | 115 | 0.9 | 4.3 | 0.28 | 0.40 | 0.28 | 89 | 1015.6 |
| 20260509230557 | 56 | 128 | 0.9 | 4.3 | 0.28 | 0.41 | 0.28 | 88 | 1015.5 |
| 20260509230055 | 56 | 327 | 0.9 | 4.3 | 0.25 | 0.38 | 0.26 | 86 | 1016.1 |
| 20260509225558 | 56 | 19 | 1.7 | 4.3 | 0.25 | 0.39 | 0.25 | 83 | 1016.1 |
| 20260509225058 | 58 | 35 | 1.7 | 8.7 | 0.20 | 0.34 | 0.20 | 80 | 1016.4 |
| 20260509224558 | 60 | 313 | 1.7 | 8.7 | 0.06 | 0.21 | 0.08 | 73 | 1016.1 |
| 20260509224058 | 64 | 355 | 1.7 | 8.7 | 0.01 | 0.16 | 0.01 | 61 | 1015.9 |
| 20260509223054 | 69 | 70 | 1.7 | 9.6 | 0.00 | 0.15 | 0.00 | 51 | 1013.9 |
| 20260509222554 | 69 | 288 | 2.6 | 10.4 | 0.00 | 0.15 | 0.00 | 49 | 1013.2 |
| 20260509222051 | 69 | 107 | 2.6 | 10.4 | 0.00 | 0.15 | 0.00 | 50 | 1013.2 |
| 20260509221551 | 69 | 154 | 2.6 | 10.4 | 0.00 | 0.15 | 0.00 | 50 | 1013.2 |
| 20260509221051 | 69 | 157 | 2.6 | 10.4 | 0.00 | 0.15 | 0.00 | 49 | 1013.2 |
| 20260509220823 | 69 | 220 | 2.6 | 16.5 | 0.00 | 0.15 | 0.00 | 51 | 1013.1 |
| 20260509220051 | 69 | 135 | 3.5 | 16.5 | 0.00 | 0.15 | 0.00 | 50 | 1013.1 |
| 20260509215551 | 69 | 291 | 4.3 | 16.5 | 0.00 | 0.15 | 0.00 | 49 | 1013.1 |
| 20260509215051 | 70 | 277 | 4.3 | 16.5 | 0.00 | 0.15 | 0.00 | 48 | 1013.1 |
| 20260509214552 | 70 | 167 | 3.5 | 15.6 | 0.00 | 0.15 | 0.00 | 49 | 1013.1 |
| 20260509214322 | 70 | 82 | 3.5 | 14.8 | 0.00 | 0.15 | 0.00 | 49 | 1013.0 |
| 20260509213552 | 71 | 240 | 4.3 | 16.5 | 0.00 | 0.15 | 0.00 | 48 | 1012.9 |
| 20260509213052 | 71 | 183 | 4.3 | 16.5 | 0.00 | 0.15 | 0.00 | 48 | 1012.8 |
| 20260509212822 | 72 | 161 | 3.5 | 12.2 | 0.00 | 0.15 | 0.00 | 48 | 1012.7 |
| 20260509212323 | 72 | 66 | 3.5 | 13.0 | 0.00 | 0.15 | 0.00 | 47 | 1012.7 |
| 20260509211552 | 72 | 167 | 4.3 | 13.0 | 0.00 | 0.15 | 0.00 | 48 | 1012.8 |
| 20260509211051 | 72 | 202 | 4.3 | 15.6 | 0.00 | 0.15 | 0.00 | 48 | 1013.0 |
| 20260509210545 | 72 | 148 | 4.3 | 15.6 | 0.00 | 0.15 | 0.00 | 49 | 1013.1 |
| 20260509210039 | 72 | 183 | 3.5 | 11.3 | 0.00 | 0.15 | 0.00 | 50 | 1013.1 |
| 20260509205533 | 72 | 136 | 4.3 | 13.9 | 0.00 | 0.15 | 0.00 | 50 | 1013.0 |
| 20260509205027 | 72 | 209 | 3.5 | 13.9 | 0.00 | 0.15 | 0.00 | 49 | 1013.1 |
| 20260509204521 | 72 | 157 | 3.5 | 12.2 | 0.00 | 0.15 | 0.00 | 50 | 1013.5 |
| 20260509204015 | 71 | 77 | 3.5 | 12.2 | 0.00 | 0.15 | 0.00 | 49 | 1013.3 |
| 20260509203510 | 71 | 349 | 4.3 | 12.2 | 0.00 | 0.15 | 0.00 | 48 | 1013.6 |
| 20260509203004 | 71 | 69 | 3.5 | 12.2 | 0.00 | 0.15 | 0.00 | 47 | 1013.8 |
| 20260509202457 | 71 | 110 | 3.5 | 12.2 | 0.00 | 0.15 | 0.00 | 47 | 1013.9 |
| 20260509201951 | 71 | 291 | 4.3 | 9.6 | 0.00 | 0.15 | 0.00 | 48 | 1013.9 |
| 20260509201445 | 71 | 13 | 3.5 | 13.0 | 0.00 | 0.15 | 0.00 | 47 | 1013.9 |
| 20260509200938 | 71 | 284 | 3.5 | 13.0 | 0.00 | 0.15 | 0.00 | 48 | 1014.0 |
| 20260509200704 | 71 | 333 | 4.3 | 13.9 | 0.00 | 0.15 | 0.00 | 49 | 1014.0 |
| 20260509195927 | 70 | 55 | 3.5 | 14.8 | 0.00 | 0.15 | 0.00 | 49 | 1014.1 |
| 20260509195421 | 70 | 227 | 3.5 | 14.8 | 0.00 | 0.15 | 0.00 | 50 | 1014.2 |
| 20260509194914 | 70 | 204 | 4.3 | 13.0 | 0.00 | 0.15 | 0.00 | 51 | 1014.2 |
| 20260509194409 | 70 | 221 | 3.5 | 12.2 | 0.00 | 0.15 | 0.00 | 50 | 1014.3 |
| 20260509193903 | 70 | 193 | 3.5 | 12.2 | 0.00 | 0.15 | 0.00 | 52 | 1014.2 |
| 20260509193629 | 70 | 144 | 3.5 | 13.0 | 0.00 | 0.15 | 0.00 | 51 | 1014.4 |
| 20260509193123 | 71 | 165 | 3.5 | 13.0 | 0.00 | 0.15 | 0.00 | 50 | 1014.6 |
| 20260509192345 | 70 | 196 | 3.5 | 13.0 | 0.00 | 0.15 | 0.00 | 52 | 1014.6 |
| 20260509191838 | 70 | 98 | 3.5 | 13.0 | 0.00 | 0.15 | 0.00 | 52 | 1014.6 |
| 20260509191332 | 69 | 168 | 3.5 | 13.0 | 0.00 | 0.15 | 0.00 | 52 | 1014.7 |
| 20260509190826 | 69 | 231 | 3.5 | 13.0 | 0.00 | 0.15 | 0.00 | 53 | 1014.9 |
| 20260509190320 | 68 | 355 | 3.5 | 11.3 | 0.00 | 0.15 | 0.00 | 53 | 1014.9 |
| 20260509185815 | 69 | 115 | 3.5 | 11.3 | 0.00 | 0.15 | 0.00 | 52 | 1014.9 |
| 20260509185309 | 69 | 138 | 2.6 | 9.6 | 0.00 | 0.15 | 0.00 | 52 | 1014.9 |
| 20260509184803 | 69 | 202 | 1.7 | 8.7 | 0.00 | 0.15 | 0.00 | 51 | 1015.1 |
| 20260509184256 | 69 | 204 | 1.7 | 8.7 | 0.00 | 0.15 | 0.00 | 52 | 1015.1 |
| 20260509183751 | 69 | 340 | 2.6 | 8.7 | 0.00 | 0.15 | 0.00 | 51 | 1015.1 |
| 20260509183244 | 69 | 111 | 2.6 | 7.8 | 0.00 | 0.15 | 0.00 | 53 | 1015.1 |
| 20260509182739 | 69 | 140 | 2.6 | 10.4 | 0.00 | 0.15 | 0.00 | 53 | 1015.1 |
| 20260509182232 | 69 | 178 | 2.6 | 10.4 | 0.00 | 0.15 | 0.00 | 51 | 1015.1 |
| 20260509181726 | 71 | 77 | 2.6 | 11.3 | 0.00 | 0.15 | 0.00 | 49 | 1015.1 |
| 20260509181221 | 70 | 306 | 2.6 | 11.3 | 0.00 | 0.15 | 0.00 | 49 | 1015.0 |
| 20260509180715 | 70 | 315 | 2.6 | 8.7 | 0.00 | 0.15 | 0.00 | 50 | 1014.9 |
| 20260509180208 | 70 | 128 | 1.7 | 7.8 | 0.00 | 0.15 | 0.00 | 52 | 1014.8 |
| 20260509175703 | 70 | 158 | 1.7 | 6.1 | 0.00 | 0.15 | 0.00 | 51 | 1015.0 |
| 20260509175157 | 69 | 124 | 2.6 | 6.1 | 0.00 | 0.15 | 0.00 | 53 | 1015.1 |
| 20260509174651 | 69 | 244 | 2.6 | 8.7 | 0.00 | 0.15 | 0.00 | 54 | 1015.2 |
| 20260509174145 | 68 | 5 | 2.6 | 8.7 | 0.00 | 0.15 | 0.00 | 54 | 1015.2 |
| 20260509173910 | 69 | 169 | 2.6 | 8.7 | 0.00 | 0.15 | 0.00 | 53 | 1015.2 |
| 20260509173133 | 69 | 159 | 1.7 | 8.7 | 0.00 | 0.15 | 0.00 | 52 | 1015.3 |
| 20260509172627 | 68 | 0 | 2.6 | 8.7 | 0.00 | 0.15 | 0.00 | 54 | 1015.2 |
| 20260509172120 | 68 | 302 | 2.6 | 8.7 | 0.00 | 0.15 | 0.00 | 55 | 1015.2 |
| 20260509171615 | 68 | 275 | 1.7 | 8.7 | 0.00 | 0.15 | 0.00 | 56 | 1015.1 |
| 20260509171108 | 68 | 271 | 2.6 | 8.7 | 0.00 | 0.15 | 0.00 | 55 | 1015.2 |
| 20260509170802 | 67 | 227 | 2.6 | 7.0 | 0.00 | 0.15 | 0.00 | 58 | 1015.5 |
| 20260509170752 | 67 | 25 | 1.7 | 7.8 | 0.00 | 0.15 | 0.00 | 56 | 1015.3 |
| 20260509170735 | 67 | 147 | 2.6 | 7.8 | 0.00 | 0.15 | 0.00 | 57 | 1015.3 |
| 20260509170718 | 67 | 48 | 2.6 | 7.8 | 0.00 | 0.15 | 0.00 | 57 | 1015.4 |
| 20260509165044 | 67 | 227 | 2.6 | 7.0 | 0.00 | 0.15 | 0.00 | 58 | 1015.5 |
| 20260509164033 | 67 | 333 | 1.7 | 8.7 | 0.00 | 0.15 | 0.00 | 61 | 1015.5 |
| 20260509163526 | 65 | 10 | 1.7 | 9.6 | 0.00 | 0.15 | 0.00 | 62 | 1015.3 |
| 20260509163021 | 65 | 161 | 1.7 | 9.6 | 0.00 | 0.15 | 0.00 | 62 | 1015.3 |
| 20260509162514 | 67 | 139 | 1.7 | 7.0 | 0.00 | 0.15 | 0.00 | 60 | 1015.4 |
| 20260509162008 | 67 | 104 | 1.7 | 8.7 | 0.00 | 0.15 | 0.00 | 62 | 1015.6 |
| 20260509161733 | 65 | 142 | 1.7 | 8.7 | 0.00 | 0.15 | 0.00 | 65 | 1015.7 |
| 20260509160956 | 65 | 323 | 1.7 | 8.7 | 0.00 | 0.15 | 0.00 | 64 | 1015.9 |
| 20260509160451 | 64 | 277 | 1.7 | 8.7 | 0.00 | 0.15 | 0.00 | 64 | 1016.0 |
| 20260509155945 | 65 | 20 | 1.7 | 7.0 | 0.00 | 0.15 | 0.00 | 67 | 1016.0 |
| 20260509155439 | 64 | 216 | 1.7 | 7.0 | 0.00 | 0.15 | 0.00 | 67 | 1016.1 |
| 20260509154932 | 63 | 107 | 1.7 | 7.0 | 0.00 | 0.15 | 0.00 | 68 | 1016.1 |
| 20260509154427 | 62 | 74 | 1.7 | 7.8 | 0.00 | 0.15 | 0.00 | 68 | 1016.3 |
| 20260509153920 | 62 | 5 | 1.7 | 7.8 | 0.00 | 0.15 | 0.00 | 69 | 1016.1 |
| 20260509153414 | 62 | 203 | 1.7 | 7.8 | 0.00 | 0.15 | 0.00 | 69 | 1016.1 |
| 20260509152908 | 61 | 290 | 1.7 | 7.8 | 0.00 | 0.15 | 0.00 | 72 | 1016.3 |
| 20260509152402 | 62 | 253 | 0.9 | 7.8 | 0.00 | 0.15 | 0.00 | 70 | 1016.1 |
| 20260509151857 | 62 | 40 | 1.7 | 8.7 | 0.00 | 0.15 | 0.00 | 70 | 1016.0 |
| 20260509151352 | 60 | 338 | 1.7 | 8.7 | 0.00 | 0.15 | 0.00 | 73 | 1016.1 |
| 20260509150845 | 60 | 50 | 2.6 | 10.4 | 0.00 | 0.15 | 0.00 | 73 | 1016.0 |
| 20260509150339 | 60 | 201 | 2.6 | 10.4 | 0.00 | 0.15 | 0.00 | 73 | 1016.0 |
| 20260509145833 | 60 | 207 | 1.7 | 7.0 | 0.00 | 0.15 | 0.00 | 71 | 1016.0 |
| 20260509145327 | 60 | 206 | 1.7 | 6.1 | 0.00 | 0.15 | 0.00 | 74 | 1016.1 |
| 20260509145052 | 60 | 176 | 0.9 | 6.1 | 0.00 | 0.15 | 0.00 | 75 | 1016.1 |
| 20260509144315 | 60 | 196 | 1.7 | 8.7 | 0.00 | 0.15 | 0.00 | 75 | 1016.1 |
| 20260509143809 | 60 | 135 | 1.7 | 8.7 | 0.00 | 0.15 | 0.00 | 79 | 1016.0 |
| 20260509143303 | 60 | 49 | 1.7 | 7.0 | 0.00 | 0.15 | 0.00 | 77 | 1015.9 |
| 20260509142756 | 60 | 138 | 1.7 | 7.0 | 0.00 | 0.15 | 0.00 | 79 | 1016.0 |
| 20260509142251 | 58 | 175 | 0.9 | 5.2 | 0.00 | 0.15 | 0.00 | 84 | 1016.0 |
| 20260509141744 | 57 | 74 | 0.9 | 5.2 | 0.00 | 0.15 | 0.00 | 84 | 1016.0 |
| 20260509141239 | 57 | 14 | 0.9 | 4.3 | 0.00 | 0.15 | 0.00 | 84 | 1016.0 |
| 20260509140732 | 57 | 27 | 0.9 | 4.3 | 0.00 | 0.15 | 0.00 | 85 | 1016.1 |
| 20260509140226 | 57 | 38 | 0.9 | 4.3 | 0.00 | 0.15 | 0.00 | 85 | 1016.1 |
| 20260509135721 | 57 | 300 | 0.9 | 4.3 | 0.00 | 0.15 | 0.00 | 85 | 1016.1 |
| 20260509135215 | 56 | 235 | 0.9 | 4.3 | 0.00 | 0.15 | 0.00 | 86 | 1016.0 |
| 20260509134709 | 56 | 211 | 1.7 | 5.2 | 0.00 | 0.15 | 0.00 | 87 | 1016.0 |
| 20260509134203 | 56 | 173 | 1.7 | 5.2 | 0.00 | 0.15 | 0.00 | 87 | 1016.1 |
| 20260509133657 | 56 | 319 | 0.9 | 2.6 | 0.00 | 0.15 | 0.00 | 88 | 1016.1 |
| 20260509133150 | 56 | 336 | 0.9 | 5.2 | 0.00 | 0.15 | 0.00 | 89 | 1016.3 |
| 20260509132915 | 55 | 325 | 0.9 | 5.2 | 0.00 | 0.15 | 0.00 | 90 | 1016.1 |
| 20260509132138 | 55 | 286 | 0.9 | 6.1 | 0.00 | 0.15 | 0.00 | 91 | 1016.1 |
| 20260509131633 | 55 | 236 | 0.9 | 6.1 | 0.00 | 0.15 | 0.00 | 91 | 1016.1 |